This is the latest recevied weather packets stored in our database for station/object W5COG. If no packets are shown the sender has not sent any weather packets the latest 10 day(s).
| Time | Temp. | Humidity | Pressure | Rain* | Wind** | Luminosity | Snow |
|---|---|---|---|---|---|---|---|
| 1778266828 | 25.56° C | 43% | 1008.8 hPa | 0 mm | - | 507 W/m² | - |
| 1778266528 | 26.11° C | 41% | 1008.8 hPa | 0 mm | - | 609 W/m² | - |
| 1778266228 | 26.11° C | 42% | 1008.8 hPa | 0 mm | - | 965 W/m² | - |
| 1778265928 | 25.56° C | 43% | 1008.8 hPa | 0 mm | - | 972 W/m² | - |
| 1778265629 | 25° C | 42% | 1008.8 hPa | 0 mm | - | 986 W/m² | - |
| 1778265329 | 25° C | 43% | 1008.9 hPa | 0 mm | - | 854 W/m² | - |
| 1778265028 | 25° C | 42% | 1009 hPa | 0 mm | - | 911 W/m² | - |
| 1778264728 | 25° C | 44% | 1009 hPa | 0 mm | - | 922 W/m² | - |
| 1778264429 | 24.44° C | 44% | 1009.1 hPa | 0 mm | - | 894 W/m² | - |
| 1778264129 | 23.89° C | 46% | 1009.3 hPa | 0 mm | - | 969 W/m² | - |
| 1778263829 | 24.44° C | 44% | 1009.4 hPa | 0 mm | - | 464 W/m² | - |
| 1778263529 | 24.44° C | 45% | 1009.4 hPa | 0 mm | - | 786 W/m² | - |
| 1778263229 | 24.44° C | 44% | 1009.5 hPa | 0 mm | - | 543 W/m² | - |
| 1778262929 | 25° C | 43% | 1009.7 hPa | 0 mm | - | 698 W/m² | - |
| 1778262629 | 25° C | 42% | 1009.6 hPa | 0 mm | - | 732 W/m² | - |
| 1778262329 | 25° C | - | - | 0 mm | - | 103 W/m² | - |
| 1778262028 | 25° C | - | - | 0 mm | - | 100 W/m² | - |
| 1778261728 | 24.44° C | 43% | 1009.9 hPa | 0 mm | - | 739 W/m² | - |
| 1778261428 | 24.44° C | 43% | 1010 hPa | 0 mm | - | 939 W/m² | - |
| 1778261128 | 24.44° C | 43% | 1010.1 hPa | 0 mm | - | 899 W/m² | - |
| 1778260229 | 23.89° C | 45% | 1010.5 hPa | 0 mm | - | 867 W/m² | - |
| 1778259928 | 23.89° C | 44% | 1010.6 hPa | 0 mm | - | 856 W/m² | - |
| 1778259628 | 23.89° C | 44% | 1010.8 hPa | 0 mm | - | 847 W/m² | - |
| 1778259328 | 23.89° C | 44% | 1010.9 hPa | 0 mm | - | 838 W/m² | - |
| 1778259029 | 23.89° C | 46% | 1011 hPa | 0 mm | - | 832 W/m² | - |
* Rain latest hour (hover to see other rain measurements)
** Current wind speed in m/s (hover to see current wind gust speed)